Theta_e
351 350 352 350 349 352 350 348 345 348 351 352 353 351 351 352 353 351 352 349 350 347 348 352 351 349 352 350 349 351 350 348 348 349 347 342 346 342 339 339 340 341 347
352 353 351 348 348 350 348 346 350 350 349 351 349 351 350 350 350 351 352 350 352 350 351 351 349 351 347 350 350 349 351 350 348 348 350 344 348 348 348 343 342 346 347
352 353 351 350 349 350 350 350 350 351 350 350 352 352 351 352 351 351 350 351 351 352 350 351 350 349 347 350 352 350 351 347 351 350 349 350 350 349 348 345 346 345 342
350 350 350 350 350 350 351 349 351 351 351 350 352 351 351 351 352 352 352 352 350 351 351 351 350 348 350 349 348 350 349 349 350 349 347 348 349 348 349 348 345 342 334
348 349 347 346 348 348 350 350 351 352 350 350 350 351 352 352 350 349 350 352 351 350 350 350 351 350 351 350 350 348 346 347 345 347 349 347 347 348 348 348 346 341 332
346 341 338 342 337 343 341 349 350 350 348 351 352 352 352 350 348 347 347 348 349 349 348 347 348 349 350 350 349 347 345 345 346 346 347 349 347 347 348 347 344 338 342
345 345 343 338 341 340 339 346 347 346 345 346 350 352 350 348 346 345 346 346 347 351 351 350 349 349 348 349 348 346 346 345 345 345 346 344 346 343 345 345 346 343 345
346 343 343 340 340 340 344 344 343 344 344 343 343 346 347 345 343 339 341 343 346 350 350 350 349 350 348 348 348 347 343 341 343 342 340 336 337 339 339 344 346 344 342
349 347 344 345 343 344 343 345 345 344 343 342 341 341 342 340 341 339 338 338 342 346 346 341 341 344 345 345 347 344 336 333 332 330 329 330 333 335 340 343 343 341 334
344 343 345 346 346 346 345 345 342 341 338 337 337 335 335 336 337 337 336 336 337 342 342 340 337 340 342 343 344 341 338 332 330 330 326 326 326 327 327 330 331 341 332
340 340 340 340 339 340 339 337 337 334 333 333 331 329 330 331 332 335 335 336 337 338 338 335 333 334 338 341 341 343 337 333 332 327 324 322 320 317 316 319 317 320 311
337 337 337 336 337 336 336 335 334 333 332 330 328 327 326 326 326 329 333 334 335 336 329 327 327 329 332 335 336 333 331 329 324 320 316 315 315 314 315 317 320 320 318
334 334 334 334 334 334 334 333 332 331 330 329 329 329 326 326 325 325 327 328 329 329 326 324 324 325 327 329 329 330 328 323 320 319 312 310 312 311 311 312 313 313 312
332 331 332 333 333 332 331 330 328 329 331 330 330 331 330 326 325 324 324 324 324 323 322 320 320 320 321 321 323 323 322 322 321 317 312 309 308 307 307 308 312 311 308
330 330 330 329 328 325 324 319 319 317 317 315 316 320 326 319 324 324 324 323 321 321 320 319 317 315 314 313 314 313 312 312 310 307 305 304 305 306 304 305 306 307 305
329 329 329 326 323 319 317 310 309 309 310 313 311 310 311 316 321 322 322 322 322 322 322 321 319 316 314 313 311 310 308 307 306 307 307 306 303 303 305 306 307 307 307
327 328 329 328 326 324 322 320 315 312 312 313 312 310 313 318 320 321 321 321 321 322 322 321 321 320 318 315 313 312 311 306 303 302 301 302 304 306 307 306 306 307 307
325 325 327 326 326 326 324 321 313 311 309 310 312 315 316 318 319 320 321 321 322 322 323 322 322 318 316 314 312 306 304 303 305 306 306 307 307 307 306 305 305 306 307
318 320 319 319 322 321 321 325 317 316 311 308 310 312 313 317 319 319 317 316 320 320 318 316 315 312 310 308 306 306 308 308 309 309 308 306 306 308 306 305 304 304 303
321 319 317 315 314 314 314 314 315 315 311 309 309 310 311 312 313 311 313 312 318 316 313 312 311 310 309 308 308 307 307 308 307 307 306 305 304 303 303 302 302 302 303
320 319 320 319 316 315 315 315 316 316 314 313 315 310 312 314 315 315 313 312 313 313 312 311 311 311 309 308 307 307 306 307 307 306 305 304 303 302 302 302 302 302 302
321 318 317 319 320 319 319 319 319 318 318 317 316 314 311 311 313 315 315 314 312 312 312 311 310 309 309 308 307 307 308 307 305 304 303 302 301 301 302 302 301 301 301
321 320 319 319 320 319 319 319 319 318 318 318 316 314 312 310 310 312 313 312 311 311 311 310 310 309 308 308 307 307 306 305 305 304 302 302 302 302 302 302 303 303 303
319 318 319 321 320 320 319 319 319 318 318 317 316 314 312 311 311 312 313 313 312 312 311 311 310 309 309 308 308 307 306 305 305 304 303 303 303 302 303 303 304 303 304
320 321 320 321 321 321 320 320 319 319 318 317 317 315 314 313 314 314 315 314 312 312 311 311 310 310 309 309 309 308 307 306 305 304 303 304 304 305 305 305 305 304 304
323 321 320 320 319 319 320 320 319 318 317 316 315 314 315 314 314 314 314 314 314 313 313 312 311 311 310 310 310 309 308 307 306 305 304 305 305 306 306 305 305 305 305
Wind_Speed
25 24 20 19 16 13 9 9 5 7 5 7 6 5 3 4 4 7 8 7 7 5 3 9 6 7 6 8 9 13 9 7 9 10 14 13 13 14 14 11 3 4 6
24 24 23 20 18 16 14 14 10 9 8 9 6 5 5 6 6 5 5 8 6 8 9 6 7 2 3 3 6 8 8 9 2 7 8 19 13 12 9 9 12 8 8
27 26 25 21 18 16 14 12 11 13 12 8 6 8 9 9 7 6 7 10 9 8 8 11 10 6 3 2 4 6 8 3 10 4 6 14 12 14 14 12 12 11 12
15 10 8 13 17 17 17 16 16 12 10 9 8 9 9 8 8 8 8 8 9 9 6 8 8 9 4 4 1 2 4 7 6 5 6 2 6 13 12 20 17 14 19
11 15 4 2 3 4 10 16 13 12 9 11 10 7 5 8 8 9 9 6 5 8 8 6 6 4 8 6 3 3 6 3 5 5 2 3 4 9 15 22 21 20 15
21 20 16 20 7 7 17 6 6 7 4 3 3 4 5 5 3 2 0 1 1 4 8 10 9 9 8 4 3 3 3 4 3 2 3 3 3 1 5 15 22 18 6
20 21 21 23 19 20 11 4 2 4 3 2 3 4 4 1 1 0 2 1 2 4 4 6 4 4 6 7 4 0 1 1 2 2 2 2 1 3 2 4 18 25 14
15 15 14 16 16 19 20 9 11 7 1 1 1 4 3 1 1 2 5 5 4 3 5 6 7 6 5 3 5 3 6 8 7 7 8 7 4 2 3 5 1 9 15
11 9 10 12 13 11 10 10 8 4 3 2 3 1 2 3 4 3 3 2 5 5 5 8 6 7 6 2 8 7 10 15 16 15 14 9 5 4 2 2 5 16 6
21 18 17 19 19 17 19 16 12 10 9 8 7 4 2 1 1 2 2 3 5 4 3 6 10 8 8 2 2 5 10 12 13 14 13 13 11 9 13 14 10 8 9
20 21 19 18 19 17 15 13 13 13 11 10 8 7 6 5 5 3 1 1 2 5 5 7 9 9 5 2 3 8 11 13 13 16 16 15 15 15 17 18 21 19 19
17 18 17 17 17 15 13 11 11 11 11 10 9 9 11 13 14 9 5 5 5 7 11 11 11 10 8 5 5 12 18 18 19 17 16 18 17 17 17 15 11 11 13
18 18 18 17 15 15 15 12 12 10 12 11 10 9 9 12 15 17 15 11 10 13 14 14 12 10 10 13 11 9 12 14 16 16 16 15 15 12 9 11 9 9 12
17 16 16 17 16 16 15 12 11 7 5 6 7 8 8 7 8 11 13 15 16 19 18 19 15 14 15 15 15 15 14 11 11 12 12 11 9 8 10 8 7 12 12
14 13 13 13 14 15 15 14 13 12 10 9 8 6 13 8 10 10 9 12 17 19 17 17 15 14 16 17 17 16 15 14 14 12 12 11 10 8 9 9 10 8 9
14 12 10 12 13 14 16 17 14 12 10 9 10 7 11 11 10 10 13 14 12 11 12 13 13 13 15 15 15 14 13 12 11 8 8 7 8 10 11 12 11 11 10
10 12 12 11 11 13 12 13 14 11 10 10 9 9 11 13 13 13 12 10 10 10 10 10 11 11 10 10 11 9 10 9 9 9 10 11 10 9 10 11 13 14 13
8 10 11 9 10 12 12 11 13 12 11 11 10 11 12 13 12 12 10 7 7 8 7 5 6 8 10 12 8 8 10 10 12 13 11 9 6 4 7 11 12 12 17
4 3 7 9 9 9 9 14 12 9 8 11 11 10 10 11 11 8 4 3 3 10 11 14 12 11 11 9 10 9 8 7 5 1 5 11 13 11 13 13 11 12 12
9 9 6 3 9 7 6 15 16 17 15 14 12 11 12 11 9 6 5 6 8 11 10 10 9 9 10 9 8 8 10 8 7 6 7 6 8 8 10 10 10 10 11
7 9 9 7 9 11 9 16 15 16 18 19 16 15 13 13 10 8 9 7 5 9 7 9 7 5 4 6 9 7 8 8 7 7 7 6 7 8 7 7 8 8 8
11 10 11 9 2 12 5 1 3 6 9 23 23 19 12 11 10 7 18 13 10 8 7 7 6 3 6 7 6 3 12 10 5 4 5 4 5 7 8 6 3 3 6
6 4 16 14 11 11 9 3 5 7 8 4 23 22 18 12 11 10 15 14 17 14 10 8 10 10 7 6 7 6 6 4 3 5 6 8 6 1 1 3 4 8 1
10 10 12 10 11 6 5 2 1 2 7 7 13 16 17 13 11 11 16 18 19 16 12 8 11 11 11 10 9 6 10 9 5 6 4 4 5 5 3 3 6 2 2
7 10 12 9 13 9 8 7 8 5 5 11 11 17 13 12 10 10 13 15 16 16 15 14 15 15 17 15 11 11 14 11 5 9 11 8 7 5 4 2 1 1 1
14 11 12 11 10 11 11 12 8 7 3 6 7 8 9 8 8 7 10 12 9 7 6 11 16 20 20 14 18 17 19 17 11 10 14 13 11 9 9 6 4 1 5
Wind_Direction
201 207 208 210 221 223 223 226 211 193 163 178 185 206 263 274 250 243 264 268 299 297 298 306 334 337 341 9 32 42 62 68 143 198 179 180 179 175 190 188 177 157 130
197 208 212 214 216 221 221 228 226 234 214 231 264 257 260 254 261 276 312 254 279 279 287 290 284 249 335 324 39 25 50 9 100 139 186 180 191 184 177 163 142 131 127
194 202 205 207 212 222 226 231 223 231 224 230 245 264 264 267 273 289 269 283 284 281 290 291 281 279 260 5 15 8 13 359 20 40 112 175 181 184 178 170 159 148 131
321 158 192 213 215 223 228 237 237 216 218 230 234 257 266 273 272 276 277 285 276 291 307 337 278 256 257 275 237 319 355 12 24 65 100 58 202 181 190 174 165 158 137
234 204 116 360 198 306 246 253 249 210 226 224 227 241 253 248 258 273 272 249 265 283 288 290 311 328 268 252 224 243 290 302 346 12 42 71 98 146 168 187 174 166 157
172 187 195 223 256 281 323 277 206 192 184 175 192 195 215 232 258 338 134 256 287 337 316 313 309 312 277 267 322 298 273 258 284 29 76 333 347 20 119 159 164 164 171
152 171 195 199 204 233 294 348 80 117 138 94 90 158 164 150 305 103 32 44 53 9 325 319 339 321 315 325 352 227 186 273 265 249 182 121 196 341 292 164 173 186 189
167 162 167 176 184 190 190 203 286 288 271 292 153 142 147 105 133 13 30 22 64 34 359 357 349 319 305 253 201 164 76 91 93 93 106 100 69 353 284 254 203 150 132
109 138 171 171 175 191 192 182 193 187 156 126 78 270 265 293 273 295 324 36 64 45 18 18 360 337 342 1 188 162 114 97 99 97 98 95 85 60 83 244 166 160 120
98 107 130 138 130 150 147 141 138 134 133 128 113 96 102 49 184 125 80 56 68 94 38 25 20 9 1 10 115 174 133 134 131 126 111 94 85 88 76 73 70 139 120
105 107 104 106 111 118 120 123 122 120 112 94 94 77 58 42 12 301 267 74 107 109 90 61 47 22 6 313 246 179 154 153 145 135 110 95 85 79 74 73 73 92 82
110 110 109 110 112 118 120 119 119 112 105 106 102 92 76 63 49 31 31 77 100 108 99 85 68 52 57 73 104 126 138 146 139 117 101 93 85 76 69 65 67 74 71
108 107 107 108 116 123 118 115 111 112 115 120 119 121 108 80 64 52 62 81 91 98 93 86 75 71 74 83 87 115 125 121 114 104 100 92 85 81 73 81 80 47 64
111 111 116 111 111 110 111 110 114 110 118 116 124 132 142 125 83 70 62 80 86 88 88 84 80 79 84 91 101 103 104 107 110 112 107 101 100 92 78 84 112 103 91
117 117 122 119 125 119 112 105 104 94 99 102 101 110 144 110 96 92 83 86 96 90 89 84 83 81 82 84 87 89 92 98 100 102 101 95 84 70 71 79 91 106 97
133 134 135 126 125 118 116 109 94 87 88 84 82 81 102 96 97 100 111 103 95 95 109 110 100 90 87 85 84 82 80 85 84 83 81 77 80 82 79 76 80 80 80
130 140 142 141 138 138 133 124 118 102 89 86 88 87 92 98 103 114 113 103 87 84 101 108 111 104 96 93 94 82 79 80 73 75 79 87 91 86 69 78 76 81 71
157 159 164 158 154 151 152 154 141 130 119 105 100 102 107 110 120 125 114 85 68 72 71 114 111 126 120 119 100 93 97 95 93 91 89 85 57 47 110 86 71 64 67
196 225 142 133 151 152 168 186 165 147 126 126 127 123 117 123 131 118 86 46 85 109 102 101 111 113 117 112 105 111 105 93 63 128 72 84 60 111 101 88 79 68 61
124 109 114 119 151 173 195 158 164 175 170 157 155 150 143 143 151 141 109 66 133 136 120 126 123 119 126 130 132 133 138 115 99 87 87 73 62 76 75 74 73 63 59
173 191 174 202 217 205 199 186 187 193 192 181 180 170 164 172 179 192 174 156 122 154 144 157 155 141 138 134 158 139 143 133 135 134 129 111 101 94 90 85 85 72 74
211 198 205 195 222 172 175 67 185 224 217 190 194 187 181 191 207 219 204 182 173 155 163 163 163 157 169 167 167 189 171 166 165 157 144 122 113 107 105 101 96 106 113
313 339 213 208 182 152 155 171 290 301 339 164 194 190 193 206 211 204 196 191 177 179 186 191 183 182 189 182 183 196 177 183 155 132 124 118 123 133 61 116 115 147 152
279 313 320 239 186 189 201 222 231 260 324 314 185 202 202 203 197 221 201 186 182 183 191 193 182 200 191 179 201 198 182 186 180 169 166 191 172 162 191 264 253 225 209
251 268 279 247 186 197 223 235 240 279 322 301 255 194 197 208 173 92 160 187 181 188 199 199 196 201 210 193 199 190 196 197 160 178 188 188 194 195 218 258 235 151 45
245 281 265 189 198 213 219 217 229 242 79 116 125 138 139 136 130 132 155 164 163 163 163 228 219 216 212 212 202 212 207 213 218 199 191 197 208 220 220 209 202 273 312